NOAA 16 DEB, 41152

Orbit data source: Space-Track

NOAA 16 DEB, 41152 is space debris in SSO originally from a launch on Thu, 21 Sep 2000 UTC launched from the Air Force Western Test Range (AFWTR). Debris objects in space refer to the collection of defunct objects orbiting the Earth. Examples of debris include non-operational satellites, rocket bodies, and fragments generated from explosions, collisions, or faulty payload assembly.

Loading next visibility...
Identifier
41152, 2000-055CK
Orbit
SSO
Country
Flag of USUS
Related business
Manufacturer
Unknown
Mission
Spacecraft
Bus & Motor
Unknown
Mass
Unknown
Launch date (UTC)
2000-09-21 (26 years ago)
Launch vehicle
Unknown
Launch site
Air Force Western Test Range (AFWTR)
Object type
Payload
Rocket body
Debris
Shape & HBR
Unknown shape, 0.1 m
Radar Cross Section
Medium (>0.1 m² and <1 m²)

Expand to show TLE details & history
Last TLE update: 3 days ago

TLE from 3 days ago
0 NOAA 16 DEB
1 41152U 00055CK  26170.81849674  .00003620  00000-0  12194-2 0  9996
2 41152  98.8379 295.6020 0012019 164.6180 195.5373 14.37646291547048
Epoch: 2026-06-19T19:38Z
TLE epoch observation values (Epoch: 2026-06-19T19:38:38.118Z)
Latitude
-0.00005°
Longitude
92.90117°
Altitude
777.496 km
Speed
7.461 km/s
True Right ascension
19h 42m 24s
True Declination
0° 00' 00"
Sunlit
Object was in full shadow at epoch
Visualization orbit readout
Latitude
Unknown
Longitude
Unknown
Altitude
Unknown
Speed
Unknown
Apparent Right ascension
Unknown
Apparent Declination
Unknown
Sunlit
N/A
Visualization observer readout
Local Sidereal Time
21:42:03
Azimuth
Unknown
Elevation
Unknown
Doppler factor
Unknown
Orbital elements
Apogee altitude
772.01 km
Perigee altitude
754.844 km
Semi-major axis
7,141.564 km
Eccentricity
0.0012
Inclination
98.8379°
RAAN
295.602°
Arg. of periapsis
164.618°
True anomaly
195.50046°
Mean anomaly
195.5373°
Eccentric anomaly
195.51888°
Mean motion
3.59628 °/min
Orbital period
100.1 mins
BSTAR
0.0012194
Loading maneuver chart data...
Computing Atmospheric mass density...
Loading historical data...
Loading historical data...
Loading historical data...
Loading historical data...
Loading historical data...
Loading historical data...
Loading historical data...

Documentation

Showing up to 5 results
|